Location: Moscow
(55.7500°N, 37.5830°E)
Time: 17:14:28
(UTC+03:00)

Transit 2A - Pass Details

Date: 02 December 2021
Orbit: 591 x 967 km, 66.7° (Epoch: 17 January)

Event Time Altitude Azimuth Distance (km) Brightness Sun altitude
Rises 01:07:00 0° 197° (SSW) 3,334 - -55.0°
Reaches altitude 10° 01:09:25 10° 192° (SSW) 2,461 - -54.9°
Maximum altitude 01:14:53 47° 120° (ESE) 1,175 - -54.6°
Drops below altitude 10° 01:20:50 10° 49° (NE) 2,670 - -54.3°
Exits shadow 01:22:20 - 46° (NE) 3,211 9.7 -54.2°
Sets 01:23:32 0° 44° (NE) 3,645 10.0 -54.1°
